Content
SEND FEEDBACK

Daily
Averages
Monthly
Summary
French Polynesia

PAPEETE, FRENCH POLYNESIA


Home > Oceania > French Polynesia
Elevation: 2 meters     Latitude: 17 33S     Longitude: 149 36W

WEATHER
 
SELECT A DAY
Number of Records: 214,168;   Date Range: 6/30/96 - 10/20/14
 
SHARE

PRINT THIS DATA

[ ← Previous Day ]
WEATHER ALMANAC - 9 AUGUST, 2014
[ Next Day → ]
[ °F ]   °C
Weather ElementAverageHighLow
Temperature24.8 °C28 °C (11:00 am)21 °C (1:00 am)
Dewpoint18.7 °C22 °C (12:30 pm)16 °C (4:00 am)
Humidity68.1 %78 % (12:00 am)47 % (11:00 am)
Barometer1014.9 hPa1017.3 hPa (8:30 am)1013.2 hPa (2:00 pm)
Wind Speed6.6 km/h20.4 km/h (5:00 pm)
Weather ElementAverage
Visibility13 km
Wind DirectionESE (120.5 °)

Weather ElementTotal
Precipitation---
Cooling Degree Days6.2 (Base 18.3)
Growing Degree Days14.5 (Base 10)
Averaged from 56 records on 9 August, 2014
WEATHER CONDITIONS BREAKOUT
WIND DIRECTION BREAKOUT
WEATHER BY HOUR - 9 AUGUST, 2014
[ °F ]   °C
Local TimeTemperatureDewpointHumidityBarometerVisibilityWind DirectionWind SpeedGust SpeedPrecipitationEventsConditions
12:00 AM22 °C17 °C73 %1015.2 hPa10 kmESE (120°)5.6 km/hPartly Cloudy
12:30 AM22 °C17 °C73 %1015.2 hPa10 kmVariable3.7 km/hPartly Cloudy
1:00 AM21 °C17 °C78 %1015.2 hPaCalmClear
1:30 AM21 °C17 °C78 %1015.2 hPaSE (140°)3.7 km/hClear
2:00 AM21.1 °C16.7 °C70 %1015.2 hPa19.3 kmESE (120°)3.7 km/hClear
2:00 AM21 °C17 °C78 %1015.2 hPaESE (120°)3.7 km/hClear
2:30 AM21 °C17 °C78 %1015.2 hPa10 kmVariable3.7 km/hScattered Clouds
3:00 AM22 °C17 °C73 %1014.2 hPa10 kmSSE (160°)9.3 km/hScattered Clouds
3:30 AM22 °C17 °C73 %1014.2 hPa10 kmSSE (160°)5.6 km/hOvercast
4:00 AM23 °C16 °C65 %1014.2 hPa10 kmSSE (160°)5.6 km/hOvercast
4:30 AM23 °C16 °C65 %1014.2 hPa10 kmVariable3.7 km/hOvercast
5:00 AM23.3 °C16.1 °C54 %1014.9 hPa49.9 kmEast (90°)3.7 km/hClear
5:00 AM23 °C16 °C65 %1014.2 hPa10 kmVariable3.7 km/hOvercast
5:30 AM23 °C16 °C65 %1015.2 hPa10 kmEast (100°)5.6 km/hOvercast
6:00 AM23 °C16 °C65 %1015.2 hPa10 kmENE (60°)7.4 km/hMostly Cloudy
6:30 AM24 °C16 °C61 %1015.2 hPa10 kmVariable1.9 km/hMostly Cloudy
7:00 AM23 °C16 °C65 %1015.2 hPa10 kmVariable3.7 km/hMostly Cloudy
7:30 AM24 °C17 °C65 %1016.3 hPa10 kmENE (60°)3.7 km/hMostly Cloudy
8:00 AM24.4 °C16.7 °C52 %1016.6 hPa30.6 kmEast (90°)1.9 km/hPartly Cloudy
8:00 AM25 °C16 °C57 %1016.3 hPa10 kmVariable1.9 km/hMostly Cloudy
8:30 AM26 °C17 °C57 %1016.3 hPa10 kmCalmScattered Clouds
9:00 AM26 °C18 °C61 %1016.3 hPa10 kmVariable3.7 km/hScattered Clouds
9:30 AM27 °C19 °C61 %1017.3 hPa10 kmNW (320°)3.7 km/hScattered Clouds
10:00 AM27 °C19 °C61 %1016.3 hPa10 kmSW (230°)7.4 km/hMostly Cloudy
10:30 AM27 °C18 °C58 %1016.3 hPa10 kmSW (230°)9.3 km/hMostly Cloudy
11:00 AM27.8 °C18.3 °C47 %1016.6 hPa30.6 kmWSW (240°)7.4 km/hScattered Clouds
11:00 AM28 °C18 °C54 %1016.3 hPa10 kmWSW (240°)7.4 km/hMostly Cloudy
11:30 AM28 °C19 °C58 %1016.3 hPa10 kmWest (280°)5.6 km/hMostly Cloudy
12:00 PM27 °C20 °C65 %1015.2 hPa10 kmVariable5.6 km/hMostly Cloudy
12:30 PM27 °C22 °C74 %1015.2 hPa10 kmNNE (20°)14.8 km/hMostly Cloudy
1:00 PM27 °C21 °C70 %1014.2 hPa10 kmNNE (30°)9.3 km/hMostly Cloudy
1:30 PM27 °C21 °C70 %1014.2 hPa10 kmNNW (330°)5.6 km/hMostly Cloudy
2:00 PM27.8 °C20.6 °C56 %1013.9 hPa30.6 kmNNE (20°)5.6 km/hPartly Cloudy
2:00 PM28 °C21 °C66 %1013.2 hPa10 kmNNE (20°)5.6 km/hMostly Cloudy
2:30 PM28 °C21 °C66 %1013.2 hPa10 kmWNW (290°)7.4 km/hScattered Clouds
3:00 PM28 °C21 °C66 %1013.2 hPa10 kmWest (260°)5.6 km/hScattered Clouds
3:30 PM28 °C20 °C62 %1013.2 hPa10 kmSSW (210°)16.7 km/hScattered Clouds
4:00 PM28 °C21 °C66 %1013.2 hPa10 kmSSW (200°)18.5 km/hScattered Clouds
4:30 PM27 °C21 °C70 %1013.2 hPa10 kmSSW (200°)18.5 km/hScattered Clouds
5:00 PM26.7 °C21.1 °C63 %1014.2 hPa30.6 kmSSW (200°)20.4 km/hScattered Clouds
5:00 PM26 °C21 °C74 %1014.2 hPa10 kmSSW (200°)20.4 km/hPartly Cloudy
5:30 PM26 °C21 °C74 %1014.2 hPa10 kmSouth (190°)18.5 km/hPartly Cloudy
6:00 PM26 °C20 °C69 %1014.2 hPa10 kmSouth (190°)13 km/hPartly Cloudy
6:30 PM25 °C21 °C78 %1014.2 hPa10 kmSouth (190°)11.1 km/hPartly Cloudy
7:00 PM25 °C20 °C74 %1015.2 hPaSouth (180°)5.6 km/hClear
7:30 PM25 °C20 °C74 %1015.2 hPaSouth (170°)3.7 km/hClear
8:00 PM24.4 °C20 °C70 %1015.6 hPa19.3 kmEast (90°)3.7 km/hScattered Clouds
8:00 PM24 °C20 °C78 %1015.2 hPa10 kmEast (90°)3.7 km/hPartly Cloudy
8:30 PM24 °C20 °C78 %1015.2 hPa10 kmCalmPartly Cloudy
9:00 PM24 °C20 °C78 %1015.2 hPa10 kmCalmPartly Cloudy
9:30 PM24 °C20 °C78 %1015.2 hPa10 kmSouth (190°)5.6 km/hPartly Cloudy
10:00 PM24 °C19 °C73 %1015.2 hPa10 kmSouth (170°)9.3 km/hPartly Cloudy
10:30 PM23 °C19 °C78 %1015.2 hPa10 kmVariable3.7 km/hPartly Cloudy
11:00 PM22.8 °C19.4 °C75 %1015.6 hPa19.3 kmESE (110°)3.7 km/h
11:00 PM23 °C19 °C78 %1015.2 hPaESE (110°)3.7 km/hClear
11:30 PM23 °C19 °C78 %1015.2 hPaSouth (170°)1.9 km/hClear
Hourly data recorded from NTAA, located 0 kilometers away from Papeete, French Polynesia







STORIES FROM OUR PARTNERS